CAPE
2 2 0 0 39 96 81 173 354 406 386 419 339 324 263 245 190 12 2 68 256 365 505 587 675 632 513 687 676 540 725 671 504
1 34 98 2 0 43 94 90 335 400 345 320 337 330 298 237 124 38 0 69 226 436 326 406 418 654 474 139 577 787 591 552 516
0 95 108 160 86 0 102 104 276 332 354 309 355 334 275 325 170 105 85 140 421 570 266 291 206 31 0 0 0 324 520 553 380
19 192 356 147 124 147 57 121 294 268 412 359 318 372 294 278 359 266 242 387 437 582 354 233 106 0 0 30 154 522 494 464 398
0 108 139 128 71 4 106 117 194 283 429 478 347 329 299 395 399 381 358 453 272 326 286 254 167 0 22 256 337 543 610 494 618
47 75 149 127 10 0 11 46 53 360 477 507 385 364 337 378 446 387 306 362 347 123 225 212 87 0 0 287 461 403 469 363 543
170 148 202 20 0 0 0 0 73 330 413 548 522 385 466 489 435 374 298 201 258 240 51 100 301 224 171 326 370 286 286 273 278
148 85 109 111 0 0 0 0 8 78 146 238 405 374 342 418 495 408 277 181 221 234 215 200 245 406 373 402 352 280 265 294 313
99 63 64 109 35 0 0 2 20 0 0 48 25 60 117 125 234 304 278 235 256 297 304 324 334 290 289 330 440 695 468 165 131
73 52 33 38 7 22 0 0 2 0 3 0 0 18 0 28 3 72 224 198 204 308 358 380 403 345 250 279 69 0 0 0 0
67 18 14 7 21 18 23 21 4 4 26 0 1 1 0 0 0 82 117 93 195 188 214 204 125 88 88 1 3 1 1 0 0
41 13 3 0 0 0 0 1 0 0 13 24 7 0 0 0 0 27 111 210 263 118 88 1 1 2 2 1 1 3 1 1 1
70 11 6 2 0 0 0 0 0 1 50 72 243 19 1 6 14 39 59 46 10 3 5 6 5 4 4 1 0 1 1 0 1
31 16 0 0 0 0 0 0 1 142 77 70 64 59 66 92 34 5 1 2 2 3 3 2 2 3 3 1 0 1 1 0 0
28 74 11 0 0 1 0 1 27 25 18 4 14 12 1 1 1 7 1 0 1 2 2 3 2 1 1 0 0 0 1 0 0
43 32 0 0 0 0 1 1 1 1 1 0 1 1 1 1 1 1 1 1 1 0 1 1 1 1 0 0 0 0 0 0 0
8 3 0 0 0 0 0 0 3 1 1 1 0 1 2 0 0 0 1 0 1 1 1 3 1 0 0 0 0 0 0 0 0
0 22 5 0 4 1 0 0 0 1 3 0 1 0 4 0 1 1 0 0 0 0 1 0 0 0 0 0 0 0 0 0 0
0 20 8 0 1 0 0 0 0 0 0 0 0 0 0 0 0 0 0 0 0 0 0 0 0 0 0 0 0 1 0 0 0
8 13 14 8 0 3 0 0 0 0 0 0 0 0 0 0 0 0 0 0 0 0 0 0 0 0 0 0 0 0 0 0 0
CIN
-17 -199 -0 -0 -188 -196 -192 -183 -166 -161 -197 -159 -173 -175 -198 -204 -204 -280 -38 -265 -183 -154 -129 -121 -127 -155 -197 -165 -150 -143 -115 -114 -127
-15 -113 -93 -30 -0 -239 -251 -203 -190 -181 -199 -184 -195 -176 -181 -206 -256 -299 -0 -274 -202 -147 -180 -158 -159 -153 -161 -204 -127 -100 -106 -98 -89
-60 -111 -125 -121 -173 -0 -218 -210 -209 -198 -190 -205 -217 -205 -207 -180 -230 -249 -259 -256 -153 -134 -167 -182 -221 -281 -0 -0 -0 -139 -125 -112 -130
-133 -107 -101 -163 -201 -232 -230 -191 -170 -197 -190 -204 -211 -206 -196 -168 -175 -195 -205 -184 -183 -156 -179 -198 -212 -0 -0 -146 -196 -113 -117 -115 -124
-7 -114 -130 -145 -204 -308 -293 -191 -194 -202 -158 -194 -240 -237 -209 -180 -170 -163 -161 -164 -210 -205 -193 -205 -203 -0 -122 -154 -134 -110 -99 -96 -66
-217 -173 -149 -155 -286 -78 -248 -325 -268 -188 -147 -166 -216 -237 -206 -168 -144 -143 -160 -159 -165 -233 -194 -189 -241 -0 -0 -157 -119 -120 -108 -115 -75
-131 -98 -119 -132 -0 -0 -0 -0 -326 -222 -179 -166 -160 -208 -187 -152 -149 -147 -154 -203 -180 -172 -274 -232 -177 -198 -186 -137 -130 -117 -109 -108 -112
-159 -155 -129 -98 -0 -0 -0 -0 -334 -309 -214 -206 -179 -173 -173 -154 -137 -131 -139 -184 -174 -173 -190 -188 -174 -144 -149 -127 -120 -124 -114 -122 -118
-222 -198 -170 -85 -91 -0 -0 -191 -183 -0 -0 -200 -242 -276 -235 -234 -133 -122 -128 -161 -171 -146 -142 -142 -137 -133 -125 -117 -121 -93 -111 -179 -149
-278 -308 -276 -214 -186 -115 -0 -0 -0 -0 -136 -0 -0 -252 -57 -196 -81 -175 -105 -154 -177 -156 -126 -121 -112 -128 -137 -117 -126 -0 -0 -0 -0
-293 -310 -333 -233 -266 -267 -214 -192 -86 -94 -48 -0 -0 -120 -0 -0 -12 -133 -101 -119 -158 -166 -175 -158 -166 -180 -116 -0 -0 -0 -0 -0 -0
-312 -271 -338 -0 -43 -76 -0 -60 -0 -0 -105 -49 -108 -0 -0 -31 -0 -172 -108 -58 -132 -214 -225 -0 -0 -0 -0 -0 -0 -0 -0 -0 -0
-262 -267 -283 -173 -0 -0 -0 -0 -0 -25 -116 -97 -9 -65 -1 -55 -121 -62 -18 -90 -236 -0 -0 -0 -0 -0 -0 -0 -0 -0 -0 -0 -0
-296 -242 -0 -0 -0 -0 -0 -0 -0 -168 -191 -121 -50 -15 -2 -3 -14 -97 -0 -0 -0 -0 -0 -0 -0 -0 -0 -0 -0 -0 -0 -0 -0
-257 -143 -173 -0 -3 -0 -0 -0 -239 -249 -279 -186 -186 -130 -17 -0 -3 -131 -0 -0 -0 -0 -0 -0 -0 -0 -0 -0 -0 -0 -0 -0 -0
-222 -172 -0 -0 -0 -0 -0 -0 -0 -0 -0 -0 -0 -0 -0 -0 -0 -0 -0 -0 -0 -0 -0 -0 -0 -0 -0 -0 -0 -0 -0 -0 -0
-123 -62 -0 -0 -0 -0 -0 -0 -0 -0 -0 -0 -0 -0 -0 -0 -0 -0 -0 -0 -0 -0 -0 -0 -0 -0 -0 -0 -0 -0 -0 -0 -0
-0 -258 -110 -0 -144 -283 -0 -0 -0 -0 -0 -0 -0 -0 -0 -0 -0 -0 -0 -0 -0 -0 -0 -0 -0 -0 -0 -0 -0 -0 -0 -0 -0
-0 -233 -274 -0 -89 -2 -0 -0 -0 -0 -0 -0 -0 -0 -0 -0 -0 -0 -0 -0 -0 -0 -0 -0 -0 -0 -0 -0 -0 -0 -0 -0 -0
-313 -299 -262 -288 -0 -249 -0 -0 -0 -0 -0 -0 -0 -0 -0 -0 -0 -0 -0 -0 -0 -0 -0 -0 -0 -0 -0 -0 -0 -0 -0 -0 -0
Wind_Speed
3 4 5 7 15 16 15 15 14 12 13 12 9 8 8 7 8 5 5 5 4 4 4 4 3 5 5 5 6 4 3 1 3
4 6 7 11 9 11 13 14 16 16 14 14 12 11 6 7 7 7 6 7 4 3 3 3 5 6 6 5 4 4 3 3 3
5 5 8 6 6 12 16 18 16 16 15 16 13 10 8 7 8 8 7 6 7 6 4 3 4 4 5 5 5 4 3 2 3
5 6 3 4 2 4 14 16 17 18 15 15 12 12 10 9 8 8 6 6 6 6 5 6 6 5 5 5 5 4 4 4 3
5 6 4 3 1 4 3 12 13 15 14 14 14 13 12 11 9 7 7 6 7 6 6 5 6 6 6 6 5 4 5 5 3
7 1 4 5 4 3 3 2 7 12 14 15 12 11 12 11 10 9 9 8 6 6 7 7 6 6 6 6 6 6 5 5 5
7 1 3 4 1 3 4 4 5 2 6 7 9 9 10 11 11 10 9 8 8 9 8 8 7 7 7 6 6 5 5 5 5
4 3 2 6 4 2 5 5 5 6 4 3 5 8 8 10 10 9 10 9 10 10 8 8 7 6 6 6 5 4 6 5 4
4 3 2 1 6 4 1 5 3 4 4 3 3 5 4 3 4 7 9 9 8 7 8 7 6 6 6 6 4 7 7 5 2
4 4 4 3 4 3 4 5 2 3 5 4 4 4 3 1 1 4 9 9 8 8 7 5 7 6 6 5 2 4 3 1 3
0 3 4 3 1 4 1 3 2 3 5 4 3 6 3 3 1 4 8 9 10 7 5 6 4 3 3 5 4 6 5 3 2
2 2 2 2 2 1 2 4 2 2 5 9 10 10 10 6 6 7 7 9 8 4 4 6 6 4 4 4 3 7 6 4 3
3 2 3 2 1 2 2 4 4 3 2 1 3 4 5 4 5 5 7 6 4 5 7 6 5 7 5 7 5 8 5 2 3
3 3 6 4 3 1 4 5 5 2 4 2 2 2 6 7 7 8 6 5 6 9 8 7 7 7 5 5 4 5 7 6 3
5 5 4 3 3 4 5 5 1 4 4 1 4 5 6 6 7 5 6 8 5 9 6 8 6 6 5 4 5 9 9 10 9
4 5 4 3 4 4 4 4 6 3 1 4 6 6 6 9 8 6 6 8 5 9 5 5 5 4 5 3 4 5 11 12 11
6 6 4 4 5 4 4 4 3 5 5 5 5 8 7 7 8 8 7 5 4 5 5 5 5 5 4 4 3 3 4 4 5
6 6 6 5 6 5 3 3 4 3 2 3 5 7 5 7 7 6 6 6 3 4 2 1 4 3 5 5 3 2 3 4 4
7 7 6 5 6 6 4 2 4 5 4 3 5 6 4 4 4 5 3 5 6 15 10 6 6 8 4 3 10 9 7 8 8
6 4 6 7 8 6 5 3 4 3 4 5 4 4 4 5 5 5 5 4 5 7 7 13 12 11 9 6 8 8 8 9 8
Wind_Direction
187 152 237 204 196 193 192 183 184 187 184 191 199 199 197 184 186 191 204 218 203 212 203 216 234 208 211 212 215 214 238 241 246
38 303 205 206 217 202 193 190 186 189 188 199 195 202 189 203 186 191 202 209 208 231 220 209 215 206 191 205 222 207 204 221 246
69 306 207 174 191 211 201 197 192 190 195 197 193 195 193 202 203 195 196 185 208 220 210 190 198 198 211 231 232 228 226 251 249
87 23 194 164 336 308 210 202 195 192 194 195 193 192 195 200 205 207 195 191 200 206 192 194 208 209 239 235 235 235 221 230 235
74 102 236 179 314 331 340 204 198 194 194 195 198 194 191 204 207 202 202 207 193 192 199 199 207 211 224 226 236 235 226 232 230
84 330 138 166 126 63 13 350 207 187 192 209 197 189 195 197 205 207 208 205 196 198 192 201 211 215 223 227 222 223 225 220 225
85 14 138 151 187 121 91 50 51 91 187 185 186 188 190 203 202 208 214 212 197 203 208 211 208 207 213 223 231 234 240 234 240
88 123 107 166 163 143 121 87 61 63 37 95 162 169 183 207 209 206 213 210 210 211 208 214 215 212 218 216 216 222 232 238 243
165 213 205 32 177 163 131 112 130 142 76 13 211 139 155 132 247 207 217 211 207 205 217 214 201 214 214 220 230 230 233 219 234
171 218 228 153 125 139 203 217 198 161 157 185 218 113 94 34 216 253 240 222 207 206 204 196 212 210 198 215 32 15 118 277 188
326 205 227 225 276 119 137 80 106 169 197 185 240 213 156 142 335 324 254 240 213 209 169 171 188 157 121 103 65 33 39 350 202
202 207 192 210 218 220 218 213 203 217 196 211 210 205 192 188 172 284 289 246 217 148 117 110 99 100 97 112 71 9 7 348 131
142 127 109 148 9 324 262 286 263 223 262 299 224 199 183 135 149 173 222 217 148 107 104 107 107 81 68 66 60 10 351 34 131
93 76 92 98 85 351 298 270 258 128 92 91 63 91 133 139 117 112 102 84 137 108 107 108 98 93 66 71 55 40 38 46 94
97 102 93 91 72 46 352 339 157 100 93 40 95 74 79 81 96 121 115 122 88 86 108 117 104 102 83 63 52 36 43 65 71
137 145 142 119 101 66 27 12 8 63 62 99 107 102 80 88 75 62 89 99 132 101 98 89 106 115 102 75 37 50 45 61 73
157 161 164 142 100 64 60 40 25 36 24 354 79 90 93 87 86 80 64 63 78 110 120 134 146 133 117 95 68 51 26 51 68
187 163 169 165 129 113 87 83 83 63 110 101 83 86 82 97 97 93 85 55 40 88 17 18 150 143 137 137 141 130 68 72 76
172 170 162 141 123 117 103 87 106 115 110 104 102 108 110 104 110 105 99 116 98 54 37 32 83 101 120 60 110 126 111 97 87
163 176 162 146 143 138 138 135 104 106 112 121 118 114 120 119 124 123 134 113 105 106 64 57 55 77 84 81 136 119 109 89 84